Starlink 4290

operational
NORAD ID: 53006 Int'l Des: 2022-076 Owner: SPXS Country: US Constellation: starlink
LEOCIRCULAR

关于 Starlink 4290

正在加载描述...

实时位置

正在加载3D地球...

即将过境

高度历史

Altitude vs Time

uPlot chart will show altitude changes over time

两行轨道根数

1 53006U 22076W 25352.58945739 -.00000348 00000-0 -38066-5 0 9993
2 53006 53.2181 98.1911 0001219 86.7036 273.4096 15.08838681190603
Epoch: Dec 18, 2025 • Age: 14 hours

当前状态

高度 548.4 km
速度 7.59 km/s
星下点 -27.43°S, 153.13°E
发射日期 Jul 7, 2022
运行时间 3.4 years
类型 internet

技术详情

分类 Payload
质量 297.00 kg
干质量 275.00 kg
总质量 297.00 kg
长度 0.20 m
直径 2.80 m
跨度 9.00 m
形状 Box + pan
制造商 SPXS
平台类型 Starlink
阶段状态 In Orbit
所有者/国家 SPXS/US

大型星座

Loading constellations...